Flag Weather past 2 weeks in Dreieich, Hesse, Germany

Now
48 °F

Fog.


Feels Like: 48 °F
Forecast: 49 / 61 °F
Wind: 1 mph from South

Location: Frankfurt / M-Flughafen

Current Time: Oct 31, 2014 at 7:35:32 AM

Latest Report: Oct 31, 2014 at 7:00 AM


Visibility: 0 mi

Pressure: 30.29 "Hg

Humidity: 100%

Dew point: 48 °F

Location of DreieichLocation

Historic Weather in Dreieich — Graph

°F

Dreieich temperature yesterday

Maximum temperature yesterday: 56 °F (at 3:00 PM)
Minimum temperature yesterday: 48 °F (at 12:00 AM)
Average temperature yesterday: 51 °F

Past Weeks' High & Low Weather Summary

 TemperatureHumidityPressure
High71 °F (Oct 19, 4:00 PM)100% (Oct 16, 7:00 AM)30.36 "Hg (Oct 16, 7:00 AM)
Low38 °F (Oct 24, 4:00 AM)61% (Oct 20, 4:00 PM)29.58 "Hg (Oct 21, 6:00 PM)
Average53 °F88%30.12 "Hg
* Reported Oct 16 7:00 AM — Oct 31 6:00 AM, Dreieich, Weather by CustomWeather, © 2014

Note: Actual official high and low records may vary slightly from our data, if they occured in-between our weather recording intervals... More about our weather records

Advertising

Dreieich weather history for previous 24 hours

 ConditionsComfort  
Time TempWeatherWind HumidityBarometerVisibility
6:00 AM
Oct 31
46 °FFog.1 mph99%30.29 "Hg0 mi
5:00 AM47 °FFog.1 mph97%30.30 "Hg1 mi
3:00 AM50 °FFog.1 mph97%30.30 "Hg3 mi
2:00 AM51 °FFog.1 mph97%30.30 "Hg3 mi
1:00 AM51 °FFog.1 mph97%30.31 "Hg3 mi
12:00 AM52 °FFog.1 mph97%30.31 "Hg3 mi
11:00 PM
Oct 30
52 °FFog.1 mph97%30.30 "Hg3 mi
10:00 PM51 °FFog.1 mph97%30.31 "Hg3 mi
9:00 PM50 °FFog.1 mph97%30.30 "Hg3 mi
8:00 PM51 °FFog.1 mph97%30.30 "Hg3 mi
7:00 PM53 °FFog.1 mph95%30.29 "Hg4 mi
6:00 PM55 °FFog.1 mph94%30.29 "Hg4 mi
5:00 PM56 °FFog.1 mph91%30.28 "Hg4 mi
3:00 PM56 °FFog.1 mph86%30.27 "Hg4 mi
2:00 PM56 °FCool.1 mphN/AN/AN/A
1:00 PMN/AN/AN/AN/AN/A
12:00 PM54 °FFog.1 mph92%30.27 "Hg3 mi
11:00 AM53 °FFog.1 mph94%30.28 "Hg2 mi
9:00 AM50 °FLow clouds.1 mph97%30.26 "Hg3 mi
8:00 AM49 °FLight rain. Low clouds.1 mph99%30.25 "Hg3 mi
7:00 AM49 °FFog.1 mph99%30.22 "Hg3 mi
Weather by CustomWeather, © 2014

See weather overviewHow to use our weather pages